• în Republica Moldova
  • Lista ţărilor
  • Pe 7 zile
  • Temperatura apei
  • Hartă satelitară
  • Meteo pe hartă
  • Widget-uri
  • user-avatar
    Intrare

    Meteo pe oră la Shkoder

    Astăzi, 24 Iunie, Sâmbătă

    Timp Temperatura Precipitaţii Vânt Presiune Umiditate
    00:00 +18°C° 0 mm 0 m/s 741 mmHg 82%
    01:00 +20°C° 0 mm 1 m/s 740 mmHg 81%
    02:00 +20°C° 0 mm 1 m/s 740 mmHg 80%
    03:00 +20°C° 0 mm 1 m/s 740 mmHg 78%
    04:00 +20°C° 0 mm 1 m/s 740 mmHg 77%
    05:00 +23°C° 0 mm 1 m/s 741 mmHg 69%
    06:00 +26°C° 0 mm 1 m/s 741 mmHg 61%
    07:00 +29°C° 0 mm 1 m/s 741 mmHg 50%
    08:00 +31°C° 0 mm 1 m/s 741 mmHg 45%
    09:00 +33°C° 0 mm 1 m/s 741 mmHg 40%
    10:00 +34°C° 0 mm 1 m/s 741 mmHg 35%
    11:00 +36°C° 0,1 mm 2 m/s 741 mmHg 35%
    12:00 +36°C° 0,1 mm 2 m/s 740 mmHg 34%
    13:00 +37°C° 0,1 mm 2 m/s 740 mmHg 33%
    14:00 +36°C° 0,1 mm 2 m/s 740 mmHg 35%
    15:00 +36°C° 0,1 mm 2 m/s 740 mmHg 37%
    16:00 +35°C° 0,1 mm 2 m/s 740 mmHg 39%
    17:00 +31°C° 0 mm 2 m/s 740 mmHg 49%
    18:00 +29°C° 0 mm 1 m/s 740 mmHg 59%
    19:00 +26°C° 0 mm 1 m/s 739 mmHg 69%
    20:00 +25°C° 0 mm 1 m/s 740 mmHg 67%
    21:00 +24°C° 0 mm 1 m/s 740 mmHg 66%
    22:00 +24°C° 0 mm 1 m/s 740 mmHg 64%
    23:00 +23°C° 0 mm 1 m/s 740 mmHg 64%

    Mâine, 25 Iunie, Duminică

    Timp Temperatura Precipitaţii Vânt Presiune Umiditate
    00:00 +23°C° 0 mm 1 m/s 740 mmHg 64%
    01:00 +23°C° 0 mm 2 m/s 740 mmHg 64%
    02:00 +22°C° 0 mm 1 m/s 740 mmHg 65%
    03:00 +22°C° 0 mm 1 m/s 740 mmHg 66%
    04:00 +21°C° 0 mm 1 m/s 740 mmHg 67%
    05:00 +24°C° 0 mm 1 m/s 740 mmHg 63%
    06:00 +26°C° 0 mm 1 m/s 740 mmHg 58%
    07:00 +29°C° 0 mm 1 m/s 740 mmHg 53%
    08:00 +31°C° 0 mm 1 m/s 740 mmHg 46%
    09:00 +33°C° 0 mm 1 m/s 740 mmHg 38%
    10:00 +36°C° 0 mm 1 m/s 740 mmHg 31%
    11:00 +36°C° 0 mm 1 m/s 739 mmHg 31%
    12:00 +37°C° 0 mm 2 m/s 739 mmHg 30%
    13:00 +37°C° 0 mm 3 m/s 739 mmHg 29%
    14:00 +37°C° 0,1 mm 2 m/s 738 mmHg 32%
    15:00 +36°C° 0,1 mm 2 m/s 738 mmHg 34%
    16:00 +35°C° 0,1 mm 2 m/s 738 mmHg 37%
    17:00 +31°C° 0,1 mm 2 m/s 738 mmHg 48%
    18:00 +28°C° 0,1 mm 1 m/s 737 mmHg 59%
    19:00 +26°C° 0,1 mm 1 m/s 737 mmHg 70%
    20:00 +24°C° 0 mm 1 m/s 738 mmHg 73%
    21:00 +23°C° 0 mm 1 m/s 738 mmHg 76%
    22:00 +22°C° 0 mm 1 m/s 738 mmHg 79%
    23:00 +21°C° 0 mm 1 m/s 738 mmHg 79%

    Poimâine, 26 Iunie, Luni

    Timp Temperatura Precipitaţii Vânt Presiune Umiditate
    00:00 +21°C° 0 mm 1 m/s 738 mmHg 80%
    01:00 +21°C° 0 mm 1 m/s 737 mmHg 81%
    02:00 +20°C° 0 mm 1 m/s 737 mmHg 81%
    03:00 +20°C° 0 mm 1 m/s 737 mmHg 82%
    04:00 +19°C° 0 mm 1 m/s 737 mmHg 82%
    05:00 +23°C° 0 mm 1 m/s 737 mmHg 71%
    06:00 +26°C° 0 mm 1 m/s 737 mmHg 60%
    07:00 +27°C° 0 mm 0 m/s 738 mmHg 49%
    08:00 +31°C° 0 mm 1 m/s 738 mmHg 44%
    09:00 +33°C° 0 mm 1 m/s 738 mmHg 39%
    10:00 +34°C° 0 mm 1 m/s 738 mmHg 34%
    11:00 +35°C° 0,2 mm 2 m/s 738 mmHg 35%
    12:00 +36°C° 0,2 mm 2 m/s 738 mmHg 36%
    13:00 +36°C° 0,2 mm 2 m/s 737 mmHg 37%
    14:00 +35°C° 0,3 mm 2 m/s 737 mmHg 39%
    15:00 +35°C° 0,3 mm 2 m/s 737 mmHg 42%
    16:00 +34°C° 0,3 mm 2 m/s 737 mmHg 44%
    17:00 +30°C° 0,3 mm 1 m/s 737 mmHg 55%
    18:00 +28°C° 0,3 mm 1 m/s 737 mmHg 65%
    19:00 +23°C° 0,3 mm 0 m/s 737 mmHg 76%
    20:00 +22°C° 0,4 mm 0 m/s 737 mmHg 79%
    21:00 +21°C° 0,4 mm 0 m/s 738 mmHg 82%
    22:00 +19°C° 0,4 mm 0 m/s 738 mmHg 86%
    23:00 +19°C° 0,2 mm 0 m/s 738 mmHg 85%

    27 Iunie, Marţi

    Timp Temperatura Precipitaţii Vânt Presiune Umiditate
    00:00 +19°C° 0,2 mm 0 m/s 738 mmHg 85%
    01:00 +21°C° 0,2 mm 1 m/s 738 mmHg 84%
    02:00 +20°C° 0 mm 1 m/s 738 mmHg 85%
    03:00 +20°C° 0 mm 1 m/s 738 mmHg 85%
    04:00 +17°C° 0 mm 0 m/s 738 mmHg 85%
    05:00 +21°C° 0 mm 0 m/s 738 mmHg 76%
    06:00 +24°C° 0 mm 0 m/s 738 mmHg 67%
    07:00 +27°C° 0 mm 0 m/s 739 mmHg 58%
    08:00 +31°C° 0 mm 1 m/s 739 mmHg 51%
    09:00 +32°C° 0 mm 1 m/s 739 mmHg 44%
    10:00 +34°C° 0 mm 1 m/s 739 mmHg 37%
    11:00 +35°C° 0 mm 2 m/s 738 mmHg 35%
    12:00 +36°C° 0 mm 2 m/s 738 mmHg 33%
    13:00 +36°C° 0 mm 3 m/s 738 mmHg 31%
    14:00 +36°C° 0 mm 2 m/s 738 mmHg 32%
    15:00 +35°C° 0 mm 2 m/s 737 mmHg 33%
    16:00 +35°C° 0 mm 2 m/s 737 mmHg 35%
    17:00 +31°C° 0 mm 2 m/s 737 mmHg 47%
    18:00 +28°C° 0 mm 1 m/s 737 mmHg 59%
    19:00 +23°C° 0 mm 0 m/s 737 mmHg 71%
    20:00 +23°C° 0 mm 1 m/s 738 mmHg 73%
    21:00 +22°C° 0 mm 1 m/s 738 mmHg 76%
    22:00 +21°C° 0 mm 1 m/s 738 mmHg 78%
    23:00 +21°C° 0 mm 1 m/s 738 mmHg 78%

    28 Iunie, Miercuri

    Timp Temperatura Precipitaţii Vânt Presiune Umiditate
    00:00 +20°C° 0 mm 1 m/s 738 mmHg 77%
    01:00 +20°C° 0 mm 1 m/s 738 mmHg 77%
    02:00 +20°C° 0 mm 1 m/s 738 mmHg 76%
    03:00 +20°C° 0 mm 1 m/s 738 mmHg 76%
    04:00 +20°C° 0 mm 1 m/s 737 mmHg 75%
    05:00 +23°C° 0 mm 1 m/s 738 mmHg 65%
    06:00 +26°C° 0 mm 1 m/s 738 mmHg 54%
    07:00 +30°C° 0 mm 1 m/s 738 mmHg 44%
    08:00 +31°C° 0 mm 1 m/s 738 mmHg 40%
    09:00 +33°C° 0 mm 1 m/s 738 mmHg 36%
    10:00 +36°C° 0 mm 2 m/s 738 mmHg 32%
    11:00 +36°C° 0 mm 2 m/s 738 mmHg 32%
    12:00 +37°C° 0 mm 2 m/s 738 mmHg 31%
    13:00 +37°C° 0 mm 2 m/s 738 mmHg 31%
    14:00 +37°C° 0 mm 2 m/s 738 mmHg 33%
    15:00 +36°C° 0 mm 2 m/s 738 mmHg 34%
    16:00 +36°C° 0 mm 2 m/s 737 mmHg 36%
    17:00 +32°C° 0 mm 2 m/s 737 mmHg 48%
    18:00 +29°C° 0 mm 1 m/s 738 mmHg 60%
    19:00 +26°C° 0 mm 1 m/s 738 mmHg 72%
    20:00 +24°C° 0 mm 1 m/s 738 mmHg 74%
    21:00 +23°C° 0 mm 1 m/s 738 mmHg 76%
    22:00 +22°C° 0 mm 1 m/s 738 mmHg 79%
    23:00 +21°C° 0 mm 1 m/s 738 mmHg 79%

    29 Iunie, Joi

    Timp Temperatura Precipitaţii Vânt Presiune Umiditate
    00:00 +21°C° 0 mm 1 m/s 738 mmHg 80%
    01:00 +21°C° 0 mm 1 m/s 738 mmHg 80%
    02:00 +21°C° 0 mm 1 m/s 738 mmHg 77%
    03:00 +21°C° 0 mm 1 m/s 738 mmHg 74%
    04:00 +21°C° 0 mm 1 m/s 738 mmHg 71%
    05:00 +24°C° 0 mm 1 m/s 738 mmHg 63%
    06:00 +28°C° 0 mm 1 m/s 739 mmHg 55%
    07:00 +31°C° 0 mm 1 m/s 739 mmHg 47%
    08:00 +33°C° 0 mm 1 m/s 739 mmHg 41%
    09:00 +35°C° 0 mm 1 m/s 739 mmHg 34%
    10:00 +37°C° 0 mm 1 m/s 739 mmHg 28%
    11:00 +39°C° 0 mm 1 m/s 739 mmHg 26%
    12:00 +39°C° 0 mm 2 m/s 739 mmHg 24%
    13:00 +40°C° 0 mm 2 m/s 738 mmHg 23%
    14:00 +39°C° 0 mm 2 m/s 738 mmHg 24%
    15:00 +39°C° 0 mm 2 m/s 738 mmHg 26%
    16:00 +38°C° 0 mm 2 m/s 738 mmHg 28%
    17:00 +34°C° 0 mm 1 m/s 738 mmHg 38%
    18:00 +30°C° 0 mm 1 m/s 738 mmHg 49%
    19:00 +27°C° 0 mm 1 m/s 737 mmHg 59%
    20:00 +26°C° 0 mm 1 m/s 738 mmHg 63%
    21:00 +25°C° 0 mm 1 m/s 738 mmHg 67%
    22:00 +23°C° 0 mm 1 m/s 738 mmHg 71%
    23:00 +23°C° 0 mm 1 m/s 738 mmHg 70%
    Arată mai mult